FENGYUN 2G (40367 NORAD) Tracking and Keplerian Element Data

This shows tracking and keplerian element data for the satellite.

Feedback or suggestion? Click here.




ElementValue
Catalog40367
NameFENGYUN 2G
Epoch Orbit1523
Epoch Day51.88716597
Epoch Year2019
RAAN104.1894
Inclination0.9688
Eccentricity0.0002455
Argument of Perigee288.9859
Mean Anonmoly176.4776
Mean Motion1.00272069
Decay Rate-3.25E-06
L11 40367U 14090A 19051.88716597 -.00000325 00000-0 00000-0 0 9992
L22 40367 0.9688 104.1894 0002455 288.9859 176.4776 1.00272069 15231

Live tracking and technical data element details for FENGYUN 2G (NORAD 40367). FENGYUN 2G can be tracked NOW for your location showing map with azimuth and elevation plus other details from your city location.

Track the satellite on the map from your city or location and see movement details for azimuth, elevation, latitude, longitude, range, height, and movement on the map or in text.







IsCatalogInMostPopularTable: catalog: 40367, numindb: 159
Update: records affected: 1



GetName: 40367 FENGYUN 2G

Hit Count: updated at: Fri, 22 Feb 2019 23:43:55 GMT